Location: Namasale
(1.5000°N, 32.6167°E)
Time: 01:00:52
(UTC+00:00)

Cosmos 1340 Rocket - Pass Details

Date: 09 April 2020
Orbit: 529 x 559 km, 81.2° (Epoch: 06 June)

Event Time Altitude Azimuth Distance (km) Brightness Sun altitude
Rises 17:15:13 0° 190° (S) 2,742 6.4 -20.6°
Reaches altitude 10° 17:17:24 10° 193° (SSW) 1,845 5.5 -21.2°
Maximum altitude 17:21:26 64° 275° (W) 618 3.2 -22.2°
Drops below altitude 10° 17:25:27 10° 357° (N) 1,832 5.6 -23.2°
Sets 17:27:37 0° 0° (N) 2,721 6.5 -23.7°
